sat.trackr.live / text

‹ back to catalog

STARLINK-30945

NORAD 58874 · 2024-019X

PAYLOAD ACTIVE UNKNOWN

§ Identity

Operator
Country
US
Launch date
2024-01-29
Launch site
AFETR
Launch vehicle
Mass (kg)
RCS (m²)

Purposes: comms

External: N2YO · Heavens-Above · Gunter

§ Orbital elements

Epoch: 2026-09-20T15:03:47.759040Z

Period
94.27 min
Inclination
43.0035°
Eccentricity
0.0001296
Mean motion
15.27576909 rev/d
Perigee alt
482.2 km
Apogee alt
483.9 km
Semi-major
6,861.2 km
B*
4.0075e-5
RAAN
228.1771°
Arg perigee
269.7795°
Mean anomaly
90.2909°
Rev number
14,889

§ Raw data

STARLINK-309451 58874U 24019X   26263.62763610  .00000841  00000+0  40075-4 0  99902 58874  43.0035 228.1771 0001296 269.7795  90.2909 15.27576909148890

JSON: /api/v1/satellites/58874 · /tle

For live sub-satellite position, see the globe view (requires WebGL).

§ Visibility from observer

Set your observer location to see the next 7 days of passes ≥ 10°. The values pass through the URL so the page stays shareable.

No JS? Fill the form by hand. The geolocation button needs JavaScript.